When you browse on this site, cookies collect data to enhance your experience and personalize the content and advertising you see.
Visit our Privacy Policy to learn more. By continuing to use the site, you agree to this use of cookies and data.
  • In Sweden
  • List of Countries
  • For 7 days
  • Water Temperature
  • Satellite Maps
  • Weather Map
  • Weather Widgets
  • user-avatar
    Login

    Hourly Weather Swansea

    Today, 18 June, Tuesday

    Time Temperature Precipitation Wind Pressure Humidity
    00:00 +12°C° 0 mm 3 mps 760 mmHg 98%
    01:00 +13°C° 0 mm 2 mps 760 mmHg 98%
    02:00 +13°C° 0 mm 2 mps 759 mmHg 98%
    03:00 +13°C° 0 mm 2 mps 759 mmHg 98%
    04:00 +13°C° 0 mm 2 mps 759 mmHg 97%
    05:00 +14°C° 0 mm 1 mps 759 mmHg 96%
    06:00 +14°C° 0 mm 1 mps 759 mmHg 96%
    07:00 +14°C° 0 mm 2 mps 759 mmHg 94%
    08:00 +15°C° 0 mm 2 mps 759 mmHg 92%
    09:00 +15°C° 0 mm 2 mps 759 mmHg 89%
    10:00 +16°C° 0.3 mm 2 mps 759 mmHg 89%
    11:00 +16°C° 0.3 mm 2 mps 759 mmHg 89%
    12:00 +16°C° 0.3 mm 2 mps 758 mmHg 88%
    13:00 +16°C° 0.4 mm 2 mps 758 mmHg 91%
    14:00 +15°C° 0.4 mm 2 mps 758 mmHg 93%
    15:00 +14°C° 0.4 mm 2 mps 758 mmHg 95%
    16:00 +15°C° 0 mm 2 mps 757 mmHg 93%
    17:00 +15°C° 0 mm 1 mps 757 mmHg 90%
    18:00 +16°C° 0 mm 1 mps 757 mmHg 87%
    19:00 +15°C° 0 mm 1 mps 757 mmHg 90%
    20:00 +14°C° 0 mm 1 mps 757 mmHg 92%
    21:00 +14°C° 0 mm 1 mps 757 mmHg 94%
    22:00 +14°C° 0.1 mm 1 mps 756 mmHg 95%
    23:00 +14°C° 0.1 mm 1 mps 756 mmHg 95%

    Tomorrow, 19 June, Wednesday

    Time Temperature Precipitation Wind Pressure Humidity
    00:00 +14°C° 0.1 mm 1 mps 756 mmHg 96%
    01:00 +14°C° 0.2 mm 2 mps 755 mmHg 96%
    02:00 +13°C° 0.2 mm 2 mps 755 mmHg 96%
    03:00 +13°C° 0.2 mm 2 mps 754 mmHg 97%
    04:00 +13°C° 0.1 mm 2 mps 754 mmHg 96%
    05:00 +13°C° 0.1 mm 2 mps 755 mmHg 96%
    06:00 +14°C° 0.1 mm 2 mps 755 mmHg 96%
    07:00 +14°C° 0 mm 2 mps 755 mmHg 94%
    08:00 +14°C° 0 mm 3 mps 755 mmHg 91%
    09:00 +14°C° 0 mm 3 mps 755 mmHg 89%
    10:00 +16°C° 0 mm 3 mps 755 mmHg 86%
    11:00 +16°C° 0 mm 3 mps 755 mmHg 84%
    12:00 +15°C° 0 mm 4 mps 756 mmHg 82%
    13:00 +15°C° 0.1 mm 4 mps 756 mmHg 81%
    14:00 +16°C° 0.1 mm 5 mps 755 mmHg 81%
    15:00 +16°C° 0.1 mm 6 mps 755 mmHg 81%
    16:00 +15°C° 0 mm 6 mps 755 mmHg 80%
    17:00 +15°C° 0 mm 6 mps 755 mmHg 79%
    18:00 +14°C° 0 mm 6 mps 755 mmHg 78%
    19:00 +13°C° 0 mm 5 mps 756 mmHg 83%
    20:00 +11°C° 0 mm 4 mps 756 mmHg 89%
    21:00 +10°C° 0 mm 3 mps 756 mmHg 94%
    22:00 +10°C° 0 mm 4 mps 756 mmHg 95%
    23:00 +10°C° 0 mm 4 mps 756 mmHg 96%

    Day after tomorrow, 20 June, Thursday

    Time Temperature Precipitation Wind Pressure Humidity
    00:00 +10°C° 0 mm 4 mps 757 mmHg 96%
    01:00 +10°C° 0 mm 4 mps 757 mmHg 96%
    02:00 +10°C° 0 mm 4 mps 757 mmHg 96%
    03:00 +10°C° 0 mm 4 mps 757 mmHg 96%
    04:00 +10°C° 0.1 mm 4 mps 757 mmHg 94%
    05:00 +11°C° 0.1 mm 4 mps 757 mmHg 93%
    06:00 +12°C° 0.1 mm 4 mps 757 mmHg 91%
    07:00 +12°C° 0.1 mm 4 mps 757 mmHg 88%
    08:00 +13°C° 0.1 mm 5 mps 757 mmHg 85%
    09:00 +14°C° 0.1 mm 5 mps 758 mmHg 81%
    10:00 +14°C° 0.1 mm 5 mps 758 mmHg 81%
    11:00 +14°C° 0.1 mm 6 mps 758 mmHg 80%
    12:00 +14°C° 0.1 mm 6 mps 758 mmHg 79%
    13:00 +15°C° 0.1 mm 6 mps 758 mmHg 77%
    14:00 +15°C° 0.1 mm 6 mps 758 mmHg 76%
    15:00 +15°C° 0.1 mm 6 mps 758 mmHg 75%
    16:00 +15°C° 0.1 mm 6 mps 759 mmHg 76%
    17:00 +14°C° 0.1 mm 6 mps 759 mmHg 78%
    18:00 +14°C° 0.1 mm 6 mps 759 mmHg 80%
    19:00 +12°C° 0 mm 5 mps 759 mmHg 84%
    20:00 +11°C° 0 mm 4 mps 760 mmHg 88%
    21:00 +10°C° 0 mm 3 mps 760 mmHg 92%
    22:00 +9°C° 0 mm 3 mps 760 mmHg 93%
    23:00 +9°C° 0 mm 3 mps 760 mmHg 94%

    21 June, Friday

    Time Temperature Precipitation Wind Pressure Humidity
    00:00 +9°C° 0 mm 3 mps 760 mmHg 95%
    01:00 +9°C° 0 mm 3 mps 760 mmHg 94%
    02:00 +9°C° 0 mm 3 mps 760 mmHg 94%
    03:00 +8°C° 0 mm 3 mps 760 mmHg 94%
    04:00 +9°C° 0 mm 2 mps 761 mmHg 91%
    05:00 +10°C° 0 mm 2 mps 761 mmHg 89%
    06:00 +10°C° 0 mm 2 mps 761 mmHg 86%
    07:00 +12°C° 0 mm 2 mps 761 mmHg 83%
    08:00 +13°C° 0 mm 2 mps 762 mmHg 79%
    09:00 +14°C° 0 mm 2 mps 762 mmHg 75%
    10:00 +14°C° 0 mm 3 mps 762 mmHg 74%
    11:00 +14°C° 0 mm 4 mps 762 mmHg 72%
    12:00 +15°C° 0 mm 4 mps 762 mmHg 70%
    13:00 +14°C° 0 mm 4 mps 763 mmHg 71%
    14:00 +14°C° 0 mm 5 mps 763 mmHg 71%
    15:00 +14°C° 0 mm 5 mps 763 mmHg 72%
    16:00 +14°C° 0 mm 4 mps 763 mmHg 73%
    17:00 +14°C° 0 mm 4 mps 763 mmHg 74%
    18:00 +14°C° 0 mm 4 mps 763 mmHg 75%
    19:00 +12°C° 0 mm 3 mps 763 mmHg 79%
    20:00 +10°C° 0 mm 2 mps 764 mmHg 84%
    21:00 +9°C° 0 mm 2 mps 764 mmHg 89%
    22:00 +8°C° 0 mm 2 mps 764 mmHg 89%
    23:00 +9°C° 0 mm 1 mps 764 mmHg 89%

    22 June, Saturday

    Time Temperature Precipitation Wind Pressure Humidity
    00:00 +8°C° 0 mm 1 mps 764 mmHg 89%
    01:00 +8°C° 0 mm 1 mps 764 mmHg 88%
    02:00 +8°C° 0 mm 1 mps 764 mmHg 87%
    03:00 +8°C° 0 mm 1 mps 764 mmHg 87%
    04:00 +9°C° 0 mm 1 mps 764 mmHg 84%
    05:00 +10°C° 0 mm 1 mps 764 mmHg 82%
    06:00 +11°C° 0 mm 1 mps 764 mmHg 79%
    07:00 +12°C° 0 mm 1 mps 764 mmHg 75%
    08:00 +14°C° 0 mm 1 mps 764 mmHg 71%
    09:00 +15°C° 0 mm 2 mps 764 mmHg 67%
    10:00 +16°C° 0 mm 2 mps 764 mmHg 66%
    11:00 +17°C° 0 mm 2 mps 764 mmHg 66%
    12:00 +18°C° 0 mm 2 mps 764 mmHg 65%
    13:00 +18°C° 0 mm 2 mps 764 mmHg 65%
    14:00 +19°C° 0 mm 1 mps 763 mmHg 65%
    15:00 +19°C° 0 mm 1 mps 763 mmHg 65%
    16:00 +19°C° 0 mm 1 mps 763 mmHg 67%
    17:00 +19°C° 0 mm 1 mps 763 mmHg 69%
    18:00 +19°C° 0 mm 1 mps 762 mmHg 70%
    19:00 +16°C° 0 mm 1 mps 763 mmHg 76%
    20:00 +15°C° 0 mm 1 mps 763 mmHg 81%
    21:00 +13°C° 0 mm 1 mps 763 mmHg 87%
    22:00 +13°C° 0 mm 2 mps 763 mmHg 86%
    23:00 +12°C° 0 mm 2 mps 763 mmHg 86%

    23 June, Sunday

    Time Temperature Precipitation Wind Pressure Humidity
    00:00 +12°C° 0 mm 2 mps 763 mmHg 85%
    01:00 +12°C° 0 mm 2 mps 762 mmHg 87%
    02:00 +11°C° 0 mm 3 mps 762 mmHg 88%
    03:00 +11°C° 0 mm 3 mps 762 mmHg 90%
    04:00 +11°C° 0 mm 3 mps 762 mmHg 89%
    05:00 +12°C° 0 mm 3 mps 762 mmHg 89%
    06:00 +13°C° 0 mm 4 mps 762 mmHg 88%
    07:00 +14°C° 0 mm 4 mps 762 mmHg 84%
    08:00 +15°C° 0 mm 4 mps 762 mmHg 80%
    09:00 +16°C° 0 mm 5 mps 762 mmHg 76%
    10:00 +17°C° 0 mm 5 mps 762 mmHg 73%
    11:00 +19°C° 0 mm 6 mps 761 mmHg 71%
    12:00 +20°C° 0 mm 6 mps 761 mmHg 69%
    13:00 +21°C° 0.1 mm 6 mps 761 mmHg 70%
    14:00 +21°C° 0.1 mm 5 mps 761 mmHg 71%
    15:00 +21°C° 0.1 mm 5 mps 760 mmHg 72%
    16:00 +20°C° 0.3 mm 5 mps 760 mmHg 77%
    17:00 +19°C° 0.3 mm 5 mps 760 mmHg 82%
    18:00 +17°C° 0.3 mm 5 mps 760 mmHg 87%
    19:00 +17°C° 0.1 mm 4 mps 760 mmHg 90%
    20:00 +15°C° 0.1 mm 4 mps 760 mmHg 92%
    21:00 +15°C° 0.1 mm 4 mps 760 mmHg 94%
    22:00 +15°C° 0.2 mm 5 mps 759 mmHg 93%
    23:00 +14°C° 0.2 mm 6 mps 759 mmHg 93%
    Show more